This demonstration page uses our WeatherBlox Daily Observations layout. Learn more.

Left ArrowRight Arrow

Hourly Observations for December 17, 2015

Temp ( °F °C ) Dew Point ( °F °C ) Humidity (%) Winds ( mph kmh ) Pressure ( in mb ) Visibility ( mi km ) Precip ( " mm )
12:51 am 00:51 Clear 26 -3.3 21 -6.1 81 81 N N/A 30.12 1020 10 16 N/A
1:51 am 01:51 Clear 25 -3.9 20 -6.7 81 81 ENE 3 6 30.12 1020 10 16 N/A
2:51 am 02:51 Clear 24 -4.4 20 -6.7 84 84 SE 5 7 30.14 1021 10 16 N/A
3:51 am 03:51 Clear 24 -4.4 20 -6.7 84 84 SE 6 9 30.14 1021 10 16 N/A
4:51 am 04:51 Clear 23 -5 19 -7.2 85 85 E 6 9 30.14 1021 10 16 N/A
5:51 am 05:51 Clear 22 -5.6 18 -7.8 85 85 SE 5 7 30.18 1022 10 16 N/A
6:51 am 06:51 Clear 22 -5.6 19 -7.2 89 89 SE 5 7 30.20 1023 10 16 N/A
7:51 am 07:51 Sunny 24 -4.4 20 -6.7 84 84 E 3 6 30.23 1024 10 16 N/A
8:51 am 08:51 Sunny 29 -1.7 22 -5.6 75 75 ESE 3 6 30.24 1024 10 16 N/A
9:51 am 09:51 Sunny 34 1.1 23 -5 64 64 SE 5 7 30.25 1025 10 16 N/A
10:51 am 10:51 Sunny 38 3.3 23 -5 55 55 SSE 5 7 30.24 1024 10 16 N/A
11:51 am 11:51 Sunny 42 5.6 23 -5 47 47 SW 3 6 30.21 1023 10 16 N/A
12:51 pm 12:51 Sunny 44 6.7 22 -5.6 41 41 VRB 3 6 30.18 1022 10 16 N/A
1:51 pm 13:51 Sunny 46 7.8 22 -5.6 38 38 N N/A 30.15 1021 10 16 N/A
2:51 pm 14:51 Sunny 48 8.9 20 -6.7 33 33 VRB 3 6 30.14 1021 10 16 N/A
3:51 pm 15:51 Sunny 49 9.4 19 -7.2 31 31 SSW 3 6 30.14 1021 10 16 N/A
4:51 pm 16:51 Sunny 49 9.4 18 -7.8 29 29 N N/A 30.14 1021 10 16 N/A
5:51 pm 17:51 Clear 43 6.1 21 -6.1 42 42 NNW 3 6 30.17 1022 10 16 N/A
6:51 pm 18:51 Clear 36 2.2 24 -4.4 62 62 N 6 9 30.21 1023 10 16 N/A
7:51 pm 19:51 Clear 35 1.7 23 -5 61 61 ESE 5 7 30.22 1023 10 16 N/A
8:51 pm 20:51 Clear 35 1.7 23 -5 61 61 SE 7 11 30.22 1023 10 16 N/A
9:51 pm 21:51 Clear 32 undefined 23 -5 69 69 ESE 5 7 30.22 1024 10 16 N/A
10:51 pm 22:51 Clear 33 0.6 23 -5 66 66 E 3 6 30.22 1023 10 16 N/A
11:51 pm 23:51 Clear 31 -0.6 23 -5 72 72 SE 6 9 30.22 1023 10 16 N/A

Powered by AerisWeather